Location: Wildlife_Club
(35.6000°N, 81.4330°W)
Time: 23:42:50
(UTC-04:00)

Vanguard 1 - Visible Passes

Search period start: 25 June 2019 00:00
Search period end: 05 July 2019 00:00
Orbit: 654 x 3830 km, 34.2° (Epoch: 24 June)

Date Brightness Start Highest point End Pass type
(mag) Time Alt. Az. Time Alt. Az. Time Alt. Az.
25 Jun 13.2 00:21:39 30° SE 00:21:39 30° SE 00:34:00 10° E visible
25 Jun 12.4 02:34:11 37° SW 02:44:05 60° SSE 02:57:48 10° E visible
25 Jun 11.8 04:49:30 10° WSW 05:08:29 83° S 05:18:29 10° E visible
25 Jun13.922:26:53ESE22:26:53ESE22:03:43SSEvisible
26 Jun 12.9 00:39:22 38° SSE 00:40:20 38° SE 00:56:11 10° E visible
26 Jun 12.3 02:51:52 29° SW 03:05:31 68° SSE 03:18:59 10° E visible
26 Jun 11.8 05:11:26 10° W 05:29:52 85° S 05:39:30 10° E visible
26 Jun 13.6 22:24:20 10° SSE 22:44:00 15° ESE 22:49:01 10° E visible
27 Jun 12.8 00:56:25 42° S 01:01:38 46° SSE 01:17:57 10° E visible
27 Jun 12.2 03:08:49 18° WSW 03:27:00 75° SSE 03:40:07 10° E visible
27 Jun 11.7 05:33:25 10° W 05:51:14 84° S 06:00:29 10° E visible
27 Jun 13.3 22:41:49 10° S 22:59:19 24° SE 23:13:11 10° E visible
28 Jun 12.6 01:00:34 10° SW 01:23:00 55° SSE 01:39:28 10° E visible
28 Jun 12.2 03:26:27 10° WSW 03:48:30 81° S 04:01:14 10° E visible
28 Jun 13.1 23:00:34 10° SSW 23:19:06 32° SE 23:36:04 10° E visible
29 Jun 12.5 01:21:22 10° SW 01:44:26 63° SSE 02:00:50 10° E visible
29 Jun 12.1 03:48:18 10° WSW 04:10:03 84° S 04:22:20 10° E visible
29 Jun 13.6 21:10:31 10° SE 21:16:21 11° SE 21:22:18 10° ESE visible
29 Jun 13.0 23:20:03 10° SSW 23:40:12 40° SE 23:58:18 10° E visible
30 Jun 12.5 01:42:29 10° WSW 02:05:56 71° SSE 02:22:06 10° E visible
30 Jun 12.1 04:10:15 10° W 04:31:35 86° S 04:43:24 10° E visible
30 Jun 13.5 21:24:47 10° SSE 21:37:12 18° SE 21:50:04 10° E visible
30 Jun 12.8 23:40:03 10° SSW 00:01:25 49° SE 00:20:09 10° E visible
01 Jul 12.4 02:03:53 10° WSW 02:27:30 77° SSE 02:43:20 10° E visible
01 Jul 12.0 04:32:15 10° W 04:53:05 85° S 05:04:27 10° E visible
01 Jul 13.3 21:42:27 10° S 21:58:02 25° SE 22:14:16 10° E visible
02 Jul 12.7 00:00:29 10° SW 00:22:42 57° SSE 00:41:45 10° ENE visible
02 Jul 12.4 02:25:30 10° WSW 02:49:08 82° S 03:04:32 10° E visible
02 Jul 12.0 04:54:16 10° W 05:14:31 81° SSW 05:25:27 10° ESE visible
02 Jul 13.1 22:01:18 10° SSW 22:18:53 33° SE 22:37:15 10° E visible
03 Jul 12.7 00:21:14 10° SW 00:44:07 65° SSE 01:03:13 10° ENE visible
03 Jul 12.4 02:47:17 10° W 03:10:49 85° S 03:25:43 10° E visible
03 Jul 11.9 05:16:15 10° W 05:35:50 75° SSW 05:46:22 10° ESE visible
03 Jul 13.0 22:20:49 10° SSW 22:39:48 41° SE 22:59:35 10° E visible
04 Jul 12.6 00:42:18 10° WSW 01:05:39 72° SSE 01:24:36 10° E visible
04 Jul 12.4 03:09:11 10° W 03:32:30 86° S 03:46:54 10° E visible
04 Jul 11.9 05:38:12 10° W 05:57:00 67° SSW 06:07:09 10° SE visible
04 Jul 12.9 22:40:50 10° SSW 23:00:52 50° SE 23:21:32 10° ENE visible
